Starlink 32488

operational
NORAD ID: 62125 Int'l Des: 2024-222 Owner: SPXS Country: US Constellation: starlink
LEOCIRCULAR

Starlink 32488について

説明を読み込み中...

リアルタイム位置

3D地球を読み込み中...

次回通過

高度履歴

Altitude vs Time

uPlot chart will show altitude changes over time

軌道要素

1 62125U 24222M 25351.75193127 .00016219 00000-0 59751-3 0 9998
2 62125 42.9999 239.2701 0001357 243.8222 116.2490 15.27585878 60110
Epoch: Dec 17, 2025 • Age: 18 hours

現在のステータス

高度 486.3 km
速度 7.63 km/s
衛星直下点 40.74°N, 84.39°E
打ち上げ日 Nov 27, 2024
運用期間 1 years
タイプ internet

技術仕様

分類 Payload
質量 730.00 kg
乾燥質量 700.00 kg
総質量 730.00 kg
長さ 0.30 m
直径 4.10 m
スパン 29.00 m
形状 Box + pan
製造者 SPXS
バスタイプ Starlink V2M
フェーズステータス In Orbit
所有者/国 SPXS/US

大規模コンステレーション

Loading constellations...